ROCKY HARBOUR CS/NF, current weather conditions

sailwx.info

Wind from 310 at 2 knots

Air temperature 4.0° C
Dewpoint 3.0° C

Last reported at 2014-Oct-31 07:00 UTC.
Time now 2014-Oct-31 09:19 UTC

Location: N 49°34' W 057°53'.
View on Google Maps.

See reports from other nearby stations

  
Tides and Currents Weather Stations Pressure Air Temp Water Temp Dewpoint Dewpoint Depression Visibility Wind Speed Wind Dir Waves Ship Positions
date/time (UTC)wind fromknots sea level pressurealtimeterstation pressurevisibilityair tempwater tempwave heightnotes
2014-Oct-31 08:00 320 1 4.0
2014-Oct-31 07:00 310 2 4.0
2014-Oct-31 06:00 290 3 5.0
2014-Oct-31 05:00 270 5 6.0
2014-Oct-31 04:00 260 9 gusting 15 6.0
2014-Oct-31 03:00 260 12 gusting 18 6.0
2014-Oct-31 02:00 250 11 gusting 18 6.0
2014-Oct-31 01:00 250 15 gusting 20 6.0
2014-Oct-31 00:00 250 10 gusting 16 6.0
2014-Oct-30 23:00 250 7 6.0
2014-Oct-30 22:00 260 7 6.0
2014-Oct-30 21:00 260 9 gusting 16 7.0
2014-Oct-30 20:00 250 3 8.0
2014-Oct-30 19:00 260 5 8.0
2014-Oct-30 18:00 250 10 gusting 15 10.0
2014-Oct-30 17:00 250 9 10.0
2014-Oct-30 16:00 250 11 gusting 18 9.0
2014-Oct-30 15:00 260 14 gusting 24 9.0
2014-Oct-30 14:00 250 7 10.0
2014-Oct-30 13:00 270 3 10.0
2014-Oct-30 12:00 260 14 gusting 20 10.0
2014-Oct-30 11:00 190 3 11.0
2014-Oct-30 10:00 160 3 11.0
2014-Oct-30 09:00 150 5 10.0
2014-Oct-30 08:00 160 6 10.0
2014-Oct-30 07:00 160 7 gusting 15 9.0
2014-Oct-30 06:00 170 7 9.0
2014-Oct-30 05:00 150 9 gusting 19 8.0
2014-Oct-30 04:00 150 9 gusting 18 7.0
2014-Oct-30 03:00 140 9 gusting 18 6.0
2014-Oct-30 02:00 140 9 gusting 15 6.0
2014-Oct-30 01:00 160 10 gusting 19 5.0
2014-Oct-30 00:00 130 4 5.0
2014-Oct-29 23:00 150 8 5.0
2014-Oct-29 22:00 120 3 5.0
2014-Oct-29 21:00 140 5 5.0
2014-Oct-29 20:00 140 5 5.0
2014-Oct-29 19:00 150 5 5.0
2014-Oct-29 18:00 150 5 5.0
2014-Oct-29 17:00 130 4 4.0
2014-Oct-29 16:00 150 6 4.0
2014-Oct-29 15:00 140 6 4.0
2014-Oct-29 14:00 160 4 3.0
2014-Oct-29 13:00 140 5 3.0
2014-Oct-29 12:00 150 4 2.0
2014-Oct-29 11:00 140 2 -1.0
2014-Oct-29 10:00 110 2 -1.0
2014-Oct-29 09:00 090 3 -1.0